CST,Max TemperatureF,Mean TemperatureF,Min TemperatureF,Max Dew PointF,MeanDew PointF,Min DewpointF,Max Humidity, Mean Humidity, Min Humidity, Max Sea Level PressureIn, Mean Sea Level PressureIn, Min Sea Level PressureIn, Max VisibilityMiles, Mean VisibilityMiles, Min VisibilityMiles, Max Wind SpeedMPH, Mean Wind SpeedMPH, Max Gust SpeedMPH,PrecipitationIn, CloudCover, Events, WindDirDegrees
2013-1-1,,,,,,,,,,,,,,,,,,,,,,
2013-1-2,51,46,42,44,41,39,93,79,67,30.20,30.16,30.09,10,10,7,10,7,,0.03,7,Rain,339
2013-1-3,48,42,34,41,37,28,100,87,53,30.37,30.25,30.19,10,8,5,10,4,,0.09,6,Rain,308
2013-1-4,55,42,29,34,28,21,93,58,26,30.44,30.40,30.35,10,10,10,9,3,,0.00,0,,8
2013-1-5,50,42,35,38,30,27,73,61,45,30.41,30.36,30.30,10,10,10,7,4,,0.00,3,,36
2013-1-6,55,47,39,41,39,36,94,74,59,30.30,30.27,30.22,10,10,10,9,2,,0.00,5,,336
2013-1-7,59,44,30,36,32,28,100,75,34,30.38,30.32,30.28,10,8,0,9,3,,0.00,0,Fog,49
2013-1-8,62,51,40,49,43,33,76,63,54,30.33,30.27,30.24,10,10,10,12,6,,0.00,7,,68
2013-1-9,65,61,57,59,56,48,88,82,71,30.36,30.32,30.27,10,10,10,10,7,,0.00,8,Rain,76
2013-1-10,74,68,62,66,63,59,100,89,73,30.33,30.26,30.09,10,9,5,21,7,31,0.01,7,Rain,99
2013-1-11,79,68,57,66,61,57,100,92,59,30.19,30.13,30.08,10,6,0,13,2,24,0.10,5,Fog-Rain,167
2013-1-12,77,68,60,66,63,57,100,80,56,30.15,30.10,30.03,10,10,9,15,6,22,0.00,6,,161
2013-1-13,76,70,64,68,65,62,98,85,67,30.06,30.02,29.97,10,10,6,14,9,,0.12,7,Rain,163
2013-1-14,68,58,47,68,55,45,100,96,87,30.17,30.09,29.99,10,7,0,13,6,,0.33,8,Fog-Rain,288
2013-1-15,59,54,48,58,54,46,100,98,93,30.11,30.02,29.94,10,4,1,7,2,,0.80,8,Rain,303
2013-1-16,57,52,46,57,51,45,100,96,88,30.06,29.99,29.93,10,8,1,9,3,,0.27,8,Rain,278
2013-1-17,46,41,36,45,37,32,94,87,71,30.33,30.04,29.94,10,8,3,18,9,24,0.04,7,Rain,261
2013-1-18,57,46,34,36,30,27,92,62,31,30.55,30.45,30.35,10,9,4,14,8,22,0.00,0,,23
2013-1-19,60,46,32,41,32,26,100,80,31,30.45,30.39,30.25,10,5,0,6,3,,0.00,0,Fog,16
2013-1-20,65,48,32,43,36,32,100,88,32,30.28,30.24,30.14,10,4,0,5,1,,0.00,0,Fog,318
2013-1-21,64,48,33,43,35,28,100,77,36,30.23,30.16,30.12,10,7,1,15,2,17,0.00,0,,336
2013-1-22,53,42,31,32,24,19,89,55,28,30.41,30.33,30.23,10,10,10,8,4,,0.00,0,,343
2013-1-23,56,44,33,44,35,28,93,71,44,30.43,30.34,30.26,10,10,10,6,1,,0.00,5,,223
2013-1-24,65,56,46,50,45,32,89,70,50,30.32,30.28,30.24,10,10,10,8,4,,0.00,5,,294
2013-1-25,70,60,50,53,41,28,81,53,39,30.30,30.22,30.12,10,10,10,15,6,20,0.00,5,,155
2013-1-26,59,52,46,55,48,40,94,79,52,30.30,30.24,30.16,10,10,9,10,5,,0.00,6,,356
2013-1-27,69,56,43,43,38,32,90,54,27,30.38,30.32,30.29,10,10,10,14,4,,0.00,3,,89
2013-1-28,66,59,52,55,51,42,96,81,58,30.37,30.30,30.22,10,9,3,9,5,,0.00,5,,68
2013-1-29,77,65,53,66,61,52,100,85,65,30.21,30.05,29.89,10,10,7,17,5,23,0.00,7,Rain,154
2013-1-30,75,60,43,68,61,30,94,89,55,30.05,29.77,29.64,10,8,0,25,13,41,1.56,7,Fog-Rain-Thunderstorm,206
2013-1-31,55,46,36,31,27,23,76,53,30,30.27,30.19,30.08,10,10,10,14,9,22,0.00,0,,272